Regional Weather Roundup
Issued by NWS

Home | Current Version | Previous Version | Text Only | Print | Product List | Glossary Off
Versions: 1 2 3 4 5 6 7 8 9 10 11 12 13 14 15 16 17 18 19 20 21 22 23 24 25 26 27 28 29 30 31 32 33 34 35 36 37 38 39 40 41 42 43 44 45 46 47 48 49 50

000
ASUS43 KTOP 011708
RWRKS

WEATHER ROUNDUP FOR KANSAS
NATIONAL WEATHER SERVICE GOODLAND KS
1200 PM CDT WED OCT 01 2014

NOTE:  "FAIR" INDICATES FEW OR NO CLOUDS BELOW 12,000 FEET WITH NO
SIGNIFICANT WEATHER AND/OR OBSTRUCTIONS TO VISIBILITY.

KSZ001>006-013>018-027>032-041>047-011800-
NORTHWEST KANSAS

CITY           SKY/WX    TMP DP  RH WIND       PRES   REMARKS
GOODLAND       MOSUNNY   64  44  48 N8        29.87S
HAYS           CLOUDY    64  59  82 NE8       29.79S
HILL CITY      MOSUNNY   69  59  70 NE5       29.80F
RUSSELL        CLOUDY    66  62  87 NE8       29.77S
$$

KSZ061>065-074>080-084>089-011800-
SOUTHWEST KANSAS

CITY           SKY/WX    TMP DP  RH WIND       PRES   REMARKS
DODGE CITY     SUNNY     77  46  33 NE12      29.78S
GARDEN CITY    SUNNY     73  46  38 N12       29.80S
GREAT BEND     PTSUNNY   64  61  88 N8        29.77F
LIBERAL        SUNNY     75  45  33 N13       29.81F
PRATT          SUNNY     77  59  53 CALM      29.75S
$$

KSZ066>073-081>083-090>101-011800-
SOUTHEAST KANSAS

CITY           SKY/WX    TMP DP  RH WIND       PRES   REMARKS
CHANUTE        PTSUNNY   79  70  74 S16       29.77F
COFFEYVILLE    MOSUNNY   82  69  64 S16G25    29.76F
HUTCHINSON     SUNNY     81  63  54 S8        29.74S
MEDICINE LODGE   N/A     80  62  54 VRB6      29.71F
NEWTON         SUNNY     81  63  54 S9        29.76F
PARSONS        LGT RAIN  82  69  64 S13G21    29.78F
WICHITA INTL   MOSUNNY   82  64  54 S10       29.73F
WICHITA JABRA  SUNNY     81  65  58 S13       29.73F
WICHITA MCCONL MOSUNNY   81  65  59 S13       29.74F
WINFIELD       MOSUNNY   80  68  66 S12       29.75F
$$

KSZ007>012-019>026-033>040-048>060-102>105-011800-
NORTHEAST KANSAS

CITY           SKY/WX    TMP DP  RH WIND       PRES   REMARKS
CONCORDIA      CLOUDY    69  65  86 N5        29.77S
EMPORIA        MOSUNNY   77  65  66 S8        29.76S
LAWRENCE       PTSUNNY   76  66  71 VRB3      29.77S
MANHATTAN      MOSUNNY   77  67  71 W7        29.74F
MARYSVILLE     MOSUNNY   72  64  78 S5        29.75F
OLATHE IND     MOSUNNY   75  67  76 SW14G23   29.78F
OLATHE EXE     MOSUNNY   75  67  76 SW10      29.78F
SALINA         MOSUNNY   74  65  73 N6        29.76S
TOPEKA BILLARD PTSUNNY   77  68  73 S6        29.76F
TOPEKA FORBES  MOSUNNY   79  66  64 S8        29.76F
$$



USA.gov is the U.S. government's official web portal to all federal, state and local government web resources and services.